Wind_Speed
23 22 22 22 22 21 22 23 24 24 24 23 20 19 19 21 22 21 19 18 17 16 15 14 15 16 17 17 17 18 17 16 14 12 11 9 8 9 10 12 15 17 19
25 24 23 23 22 22 23 24 24 25 25 24 23 22 22 23 24 23 22 22 20 19 18 16 16 16 18 19 20 20 19 18 17 15 13 11 9 8 8 10 13 15 17
25 24 24 23 23 23 25 25 25 26 26 26 26 26 25 26 26 26 26 25 24 22 21 19 19 19 20 21 23 22 22 21 20 18 16 13 12 11 10 9 10 12 15
25 26 26 25 25 25 25 25 25 27 28 28 28 28 29 29 29 29 28 27 26 25 24 23 22 23 23 24 26 26 26 24 23 21 19 17 15 13 12 11 10 10 12
25 26 26 26 26 26 26 26 27 28 29 29 29 30 30 31 31 30 30 29 29 28 26 25 25 26 28 28 28 29 29 28 26 24 22 20 19 17 14 13 13 13 13
24 24 25 26 26 27 27 27 27 27 28 29 30 30 31 31 31 29 29 28 28 28 27 27 27 27 28 30 31 30 30 31 29 27 25 23 22 19 17 16 15 15 15
22 23 24 25 26 27 27 27 27 27 27 28 29 29 29 28 28 27 26 26 26 26 26 26 27 27 28 30 30 31 32 33 33 30 28 26 25 23 20 19 17 17 17
22 23 24 25 26 27 26 25 26 26 27 27 26 25 24 24 24 24 23 22 22 22 22 23 24 24 24 26 28 31 34 34 35 34 32 30 29 27 24 22 20 18 18
23 24 24 25 25 25 25 24 24 25 26 25 24 22 21 20 20 20 19 18 18 18 18 19 20 21 22 22 24 29 32 35 35 35 35 33 32 31 28 26 23 21 19
22 22 22 22 22 23 23 23 23 23 24 24 23 21 20 19 18 17 16 16 16 17 17 17 18 19 21 22 23 27 31 34 36 36 36 35 34 32 31 29 27 25 24
21 21 22 22 22 22 22 21 21 22 23 23 22 21 20 19 18 16 16 15 15 16 17 17 17 18 19 20 21 23 28 32 34 35 36 36 35 33 33 31 30 29 28
22 22 22 23 22 22 21 20 21 22 23 22 21 20 20 20 20 19 18 17 17 17 18 18 18 18 19 20 20 21 23 28 32 33 33 34 34 32 33 33 32 32 31
24 24 24 23 23 22 22 21 21 22 22 21 20 20 20 21 21 21 21 20 19 19 19 19 19 19 20 21 21 21 22 25 29 32 32 32 33 33 34 35 34 34 34
27 27 26 25 24 23 22 21 22 23 22 21 21 21 21 22 22 23 23 22 22 22 21 21 20 20 21 23 23 24 24 25 27 30 32 33 34 35 35 35 35 35 35
29 28 27 25 23 22 22 23 23 23 22 22 23 23 23 23 23 23 24 24 24 24 23 23 22 22 23 23 24 25 25 26 28 30 31 32 33 35 35 35 36 36 36
28 27 26 25 24 23 23 24 24 23 23 24 24 25 24 23 23 23 24 24 25 25 25 25 24 24 24 24 24 24 25 26 27 28 30 31 32 33 34 35 36 36 36
25 24 24 23 23 23 23 23 23 22 23 23 24 24 23 23 23 23 23 24 24 25 25 26 26 25 25 24 25 24 25 26 26 27 27 28 29 31 32 34 35 35 35
19 20 20 20 21 21 22 22 22 22 23 23 23 23 22 23 23 23 23 23 24 24 25 26 26 26 26 25 25 25 25 26 26 26 26 26 26 26 29 31 32 32 32
12 13 14 15 17 17 18 20 21 22 22 22 22 22 23 23 23 23 23 23 23 23 24 25 26 26 26 26 26 26 26 26 25 25 25 25 25 25 25 27 29 31 31
6 8 10 13 15 16 18 19 20 21 21 22 22 22 23 23 23 23 24 24 24 24 25 25 25 26 26 25 25 26 27 26 25 25 25 24 24 24 25 26 28 30 31
7 9 11 12 14 16 17 18 19 19 20 21 21 21 21 21 21 21 22 23 24 25 26 27 27 27 27 26 26 26 26 26 26 25 24 24 23 22 23 25 27 28 29
8 10 11 12 13 14 15 16 16 18 18 19 19 18 18 18 18 19 20 22 24 26 27 28 29 28 28 27 27 27 26 26 26 25 24 23 22 22 23 24 25 26 27
10 11 11 11 11 12 13 14 16 16 16 16 16 15 15 15 16 18 19 21 23 25 27 28 29 29 29 28 27 27 27 27 26 25 24 22 22 22 22 22 23 25 26
11 11 11 11 11 12 13 14 15 15 14 14 13 12 13 14 15 16 17 19 21 22 23 25 26 27 27 26 27 27 26 26 25 24 23 22 22 22 21 21 21 22 23
11 11 11 11 11 12 13 14 14 13 12 11 10 11 12 13 14 15 16 16 16 15 16 17 20 22 22 23 24 24 25 25 24 22 22 22 22 21 21 21 21 21 20
11 11 12 12 11 12 12 12 12 11 10 9 10 11 11 12 13 14 14 14 14 10 7 7 10 13 15 17 18 19 21 21 21 20 20 20 20 20 21 21 21 21 20
Wind_Direction
281 284 287 288 289 288 287 288 288 288 289 290 290 288 284 280 276 273 272 274 274 270 262 258 253 251 247 244 238 232 228 229 226 227 231 230 219 213 214 214 214 215 214
276 281 284 285 285 285 285 286 287 287 289 290 289 285 280 275 273 271 269 267 267 266 261 259 258 255 251 246 239 234 230 229 224 222 226 229 226 219 216 216 216 217 218
274 280 281 281 282 283 285 287 288 289 290 290 289 286 283 279 275 271 267 265 263 262 259 257 257 255 254 250 242 236 233 231 225 222 221 226 227 225 223 222 220 220 220
273 277 278 279 281 282 286 289 289 290 290 289 288 285 282 279 275 270 267 264 260 256 256 254 257 257 256 256 249 241 236 231 226 223 223 225 226 226 227 227 227 226 224
271 274 275 278 281 285 289 290 291 292 291 289 287 284 281 278 275 272 268 263 259 254 252 252 254 256 256 256 252 246 238 230 226 224 224 226 227 227 228 231 234 235 233
268 271 274 278 283 287 290 292 293 294 292 290 287 284 281 278 275 272 268 264 259 255 253 252 253 256 256 255 251 246 238 230 227 225 224 226 229 230 231 234 238 241 242
267 270 275 280 284 288 290 292 294 294 294 292 289 285 282 279 276 272 268 264 259 256 254 255 255 256 255 254 251 245 242 232 226 225 225 227 230 233 236 239 243 246 248
267 271 277 282 286 289 291 293 296 295 295 294 292 288 284 280 277 272 267 263 259 256 255 256 256 256 257 254 251 245 241 234 229 227 227 228 231 236 239 241 243 246 248
269 275 280 283 286 289 292 295 296 296 295 294 292 289 285 281 278 273 267 262 257 255 255 256 255 255 253 254 254 248 243 237 232 232 230 229 232 236 239 241 241 244 246
273 277 280 283 286 289 292 294 295 295 296 295 290 286 283 279 278 275 269 263 259 256 254 253 256 257 255 256 256 249 245 239 236 236 232 230 233 236 238 239 241 243 245
273 277 281 283 285 287 289 293 295 298 299 297 290 282 278 276 275 276 273 269 264 261 258 256 256 256 255 256 258 252 246 242 239 236 234 232 234 237 237 238 240 242 243
273 278 280 281 281 282 286 290 296 299 299 297 292 283 278 276 275 275 274 272 270 267 264 261 256 254 254 256 254 252 246 242 238 237 234 233 235 237 239 241 241 242 243
272 276 277 278 279 279 283 287 293 297 296 293 289 284 280 278 277 275 274 272 270 268 266 264 259 255 254 253 252 250 246 243 239 237 236 236 236 238 241 241 242 243 245
272 274 276 276 276 278 280 284 290 292 291 287 284 282 281 281 279 277 274 271 269 267 265 264 260 256 253 251 250 250 250 245 241 240 240 240 241 242 243 242 243 244 246
270 270 271 272 273 276 280 282 287 288 285 282 280 281 282 281 280 277 274 270 266 264 262 261 259 256 254 252 251 251 250 248 246 244 243 244 244 243 242 242 243 245 248
267 266 266 267 269 275 279 282 285 286 283 281 282 284 285 283 280 278 273 269 264 261 259 258 257 255 254 253 253 252 249 248 247 246 245 247 248 244 242 243 245 247 249
262 263 263 265 268 273 277 281 284 285 284 284 285 286 285 283 281 278 273 268 263 260 258 256 255 254 252 252 252 251 249 248 248 248 248 248 248 245 243 243 245 247 248
257 258 261 264 268 273 277 280 284 287 288 287 287 287 285 283 281 277 273 269 264 259 256 255 254 253 252 252 252 250 248 247 247 249 249 249 249 247 245 244 244 244 246
248 251 258 265 271 276 280 284 288 291 291 291 290 289 287 284 281 277 274 270 266 260 256 254 253 252 250 250 250 250 248 247 248 249 249 250 250 250 248 246 245 245 247
251 258 267 274 279 283 287 290 292 293 293 293 293 291 289 286 282 277 273 269 266 262 258 255 253 252 251 250 250 248 247 247 248 249 248 248 247 247 248 248 248 249 249
277 280 282 284 286 288 290 293 295 296 297 298 297 295 292 289 285 281 275 271 268 265 261 258 256 254 252 251 249 247 246 248 249 249 248 247 248 248 248 247 248 248 249
291 291 290 290 291 293 296 299 301 304 305 304 303 300 297 295 293 289 284 278 273 269 264 260 256 254 254 252 249 246 245 246 247 249 249 248 248 248 250 250 252 252 251
303 301 299 298 300 303 306 308 311 313 314 313 310 308 307 307 304 299 294 288 281 274 267 260 255 252 252 250 246 245 244 244 246 247 247 247 248 248 251 254 256 257 257
310 309 308 307 308 310 313 316 318 320 320 318 316 315 317 318 317 313 309 302 295 283 269 258 251 248 248 246 243 243 242 243 244 243 243 244 246 249 252 256 260 262 262
318 316 314 313 314 316 319 322 324 324 323 324 325 327 328 329 329 329 326 322 316 301 278 258 246 243 243 243 241 239 239 238 240 241 240 241 245 250 254 258 262 265 267
324 323 321 320 320 322 324 326 326 327 328 331 335 336 337 339 342 343 341 340 342 337 310 259 239 235 235 237 235 234 235 233 235 235 237 241 245 251 254 258 261 264 265
Height
5863 5862 5861 5861 5860 5859 5858 5856 5855 5854 5853 5852 5850 5850 5848 5847 5846 5844 5843 5842 5840 5839 5839 5839 5839 5840 5840 5841 5843 5844 5846 5847 5849 5850 5851 5852 5852 5852 5853 5853 5854 5856 5857
5858 5858 5857 5856 5855 5854 5853 5852 5850 5849 5848 5847 5845 5845 5843 5842 5841 5839 5838 5837 5836 5835 5835 5836 5836 5836 5837 5837 5838 5840 5842 5844 5845 5847 5848 5850 5851 5851 5851 5852 5853 5854 5855
5853 5852 5852 5851 5850 5849 5848 5846 5845 5843 5842 5841 5840 5838 5837 5836 5835 5834 5833 5832 5831 5830 5830 5831 5831 5832 5832 5833 5834 5836 5838 5840 5842 5844 5846 5847 5849 5850 5850 5851 5852 5853 5854
5847 5847 5846 5845 5845 5844 5842 5841 5839 5837 5836 5835 5833 5832 5830 5829 5828 5827 5826 5825 5825 5825 5824 5824 5825 5826 5827 5828 5829 5831 5833 5836 5838 5840 5842 5844 5846 5848 5849 5850 5850 5851 5852
5841 5841 5840 5840 5839 5838 5836 5835 5833 5831 5830 5828 5826 5825 5823 5821 5820 5819 5818 5818 5818 5818 5818 5819 5819 5820 5821 5822 5823 5825 5828 5830 5833 5835 5837 5839 5842 5844 5846 5848 5848 5849 5850
5835 5835 5834 5834 5833 5832 5830 5829 5827 5825 5823 5821 5819 5817 5815 5814 5812 5811 5810 5810 5810 5811 5812 5812 5813 5813 5814 5815 5816 5818 5821 5824 5827 5830 5832 5835 5837 5840 5842 5844 5845 5847 5848
5829 5829 5828 5828 5827 5826 5825 5823 5821 5819 5817 5815 5812 5810 5808 5806 5805 5804 5803 5803 5803 5804 5805 5806 5806 5806 5807 5807 5808 5811 5814 5817 5820 5824 5826 5829 5832 5834 5837 5840 5842 5844 5845
5823 5823 5823 5822 5821 5820 5819 5817 5815 5813 5811 5809 5806 5804 5802 5800 5799 5798 5797 5797 5797 5798 5799 5799 5800 5800 5800 5800 5800 5803 5806 5810 5813 5817 5820 5824 5826 5829 5832 5835 5838 5840 5841
5816 5817 5817 5816 5815 5814 5813 5812 5810 5807 5805 5802 5800 5798 5797 5795 5794 5793 5792 5792 5792 5793 5793 5793 5794 5793 5794 5794 5795 5796 5799 5803 5806 5810 5814 5817 5820 5824 5827 5830 5833 5835 5836
5810 5810 5810 5810 5809 5808 5807 5806 5804 5802 5799 5797 5795 5793 5792 5790 5789 5789 5788 5788 5788 5788 5788 5789 5789 5789 5789 5789 5790 5790 5792 5796 5800 5803 5807 5811 5814 5818 5821 5824 5827 5829 5831
5804 5804 5804 5804 5803 5802 5801 5800 5798 5796 5794 5791 5789 5788 5787 5786 5786 5785 5784 5784 5784 5783 5784 5784 5784 5784 5784 5784 5784 5785 5786 5789 5792 5796 5800 5804 5808 5811 5814 5817 5820 5823 5825
5798 5798 5798 5798 5797 5796 5795 5794 5793 5791 5789 5786 5784 5783 5782 5781 5781 5780 5780 5779 5779 5779 5779 5779 5779 5779 5780 5780 5780 5780 5781 5783 5786 5789 5793 5797 5801 5804 5807 5810 5813 5816 5819
5792 5792 5792 5791 5791 5790 5790 5789 5787 5786 5784 5782 5780 5779 5777 5776 5775 5775 5774 5774 5773 5773 5773 5773 5773 5774 5774 5774 5775 5776 5777 5778 5780 5783 5786 5790 5793 5797 5800 5803 5806 5809 5811
5786 5786 5786 5785 5785 5784 5783 5783 5782 5780 5779 5777 5775 5774 5773 5771 5770 5769 5768 5767 5767 5767 5767 5767 5767 5768 5768 5768 5769 5770 5771 5772 5774 5777 5779 5782 5785 5789 5792 5795 5798 5801 5803
5778 5778 5779 5779 5779 5778 5778 5777 5776 5775 5773 5771 5770 5769 5767 5766 5764 5763 5762 5761 5760 5760 5760 5761 5761 5761 5762 5762 5763 5764 5765 5767 5768 5770 5772 5775 5777 5780 5783 5787 5790 5792 5795
5769 5770 5771 5772 5772 5772 5771 5771 5770 5768 5767 5765 5764 5762 5761 5759 5757 5756 5755 5754 5753 5753 5753 5754 5754 5755 5755 5756 5757 5758 5759 5760 5762 5763 5765 5767 5769 5772 5775 5778 5781 5784 5787
5761 5763 5765 5766 5766 5766 5765 5764 5763 5762 5761 5759 5757 5755 5754 5752 5750 5749 5748 5747 5746 5746 5746 5746 5747 5748 5749 5750 5750 5751 5752 5754 5755 5756 5758 5760 5762 5764 5767 5769 5772 5775 5777
5756 5758 5759 5760 5761 5760 5760 5759 5757 5756 5754 5752 5750 5748 5747 5745 5743 5741 5740 5739 5739 5739 5739 5739 5740 5741 5741 5743 5743 5744 5745 5747 5748 5750 5751 5753 5755 5757 5759 5761 5764 5766 5769
5753 5754 5755 5756 5756 5755 5754 5753 5752 5750 5748 5746 5743 5741 5739 5737 5736 5734 5733 5732 5731 5731 5731 5731 5732 5733 5734 5735 5736 5737 5738 5740 5742 5743 5745 5746 5748 5750 5752 5754 5756 5758 5761
5752 5753 5753 5753 5752 5751 5750 5748 5746 5744 5742 5739 5737 5734 5732 5730 5728 5726 5725 5724 5723 5723 5723 5723 5724 5725 5726 5727 5728 5730 5731 5733 5735 5736 5738 5740 5741 5743 5745 5747 5749 5751 5752
5752 5751 5751 5750 5749 5747 5746 5744 5741 5739 5736 5733 5730 5728 5725 5723 5721 5719 5717 5716 5715 5715 5715 5715 5715 5716 5718 5719 5720 5722 5724 5726 5727 5729 5731 5733 5735 5737 5738 5740 5742 5743 5745
5750 5750 5748 5747 5745 5744 5742 5739 5737 5734 5731 5728 5725 5722 5719 5717 5715 5712 5710 5709 5707 5706 5705 5705 5706 5707 5709 5711 5712 5714 5716 5718 5720 5722 5724 5726 5728 5730 5732 5733 5734 5736 5737
5749 5747 5746 5744 5742 5740 5738 5735 5732 5729 5726 5723 5720 5717 5714 5712 5709 5706 5703 5701 5698 5696 5695 5695 5696 5698 5700 5702 5704 5707 5709 5711 5713 5716 5718 5720 5722 5724 5725 5727 5728 5729 5730
5747 5745 5743 5741 5739 5737 5734 5731 5728 5725 5722 5719 5716 5714 5711 5708 5705 5701 5697 5693 5689 5686 5684 5684 5686 5688 5691 5693 5696 5699 5701 5704 5706 5709 5711 5714 5716 5718 5720 5721 5722 5723 5723
5745 5743 5741 5739 5736 5734 5731 5728 5725 5722 5719 5716 5713 5711 5708 5704 5701 5697 5693 5688 5683 5678 5676 5676 5677 5680 5683 5686 5688 5691 5694 5697 5701 5703 5706 5708 5711 5712 5714 5715 5716 5717 5717
5742 5741 5739 5736 5734 5731 5728 5725 5722 5719 5717 5714 5711 5708 5705 5702 5698 5694 5690 5685 5681 5676 5673 5672 5673 5675 5678 5680 5683 5686 5689 5692 5695 5698 5700 5703 5705 5707 5708 5709 5710 5711 5711